Location: Del Amo
(33.8464°N, 118.2104°W)
Time: 18:00:27
(UTC+00:00)

Vanguard 2 Rocket - Pass Details

Date: 17 September 2024
Orbit: 553 x 3298 km, 32.9° (Epoch: 11 October)

Event Time Altitude Azimuth Distance (km) Brightness Sun altitude
Rises 08:48:55 0° 247° (WSW) 3,969 - -51.3°
Reaches altitude 10° 08:51:09 10° 246° (WSW) 3,265 - -51.1°
Maximum altitude 08:59:42 74° 162° (SSE) 1,925 - -50.3°
Exits shadow 09:04:42 45° 91° (E) 2,804 9.2 -49.8°
Drops below altitude 10° 09:15:11 10° 81° (E) 5,591 11.2 -48.6°
Sets 09:20:18 0° 81° (E) 6,910 11.8 -48.0°
